This demonstration page uses our WeatherBlox Daily Observations layout. Learn more.

38.89511, -77.03637

Hourly Observations for October 8, 2018

Temp ( °F °C ) Dew Point ( °F °C ) Humidity (%) Winds ( mph kmh ) Pressure ( in mb ) Visibility ( mi km ) Precip ( " mm )
12:52 am 00:52 Clear with Mist and Fog 74 23.3 71 21.7 91 91 Calm 30.25 1025 6 9.65604 0 0
1:18 am 01:18 Clear with Mist and Fog 73 22.8 70 21.1 90 90 Calm 30.27 1025 6 9.65604 0 0
1:44 am 01:44 Clear with Mist and Fog 72 22.2 70 21.1 94 94 Calm 30.27 1025 6 9.65604 0 0
1:52 am 01:52 Mostly Clear with Mist and Fog 72 22.2 70 21.1 94 94 Calm 30.26 1025 6 9.65604 0 0
2:52 am 02:52 Mostly Clear with Fog 72 22.2 70 21.1 94 94 Calm 30.26 1025 6 9.65604 0 0
3:52 am 03:52 Mostly Clear with Fog 71 21.7 69 20.6 94 94 Calm 30.27 1025 6 9.65604 0 0
4:52 am 04:52 Mostly Cloudy with Fog 72 22.2 70 21.1 94 94 Calm 30.27 1025 6 9.65604 0 0
5:52 am 05:52 Mostly Cloudy 72 22.2 69 20.6 91 91 S 5 7 30.29 1026 8 12.87472 0 0
6:52 am 06:52 Mostly Cloudy 72 22.2 70 21.1 94 94 SSW 5 7 30.3 1026 8 12.87472 0 0
7:52 am 07:52 Partly Cloudy 73 22.8 70 21.1 90 90 Calm 30.32 1027 9 14.48406 0 0
8:52 am 08:52 Partly Cloudy 74 23.3 70 21.1 88 88 Calm 30.32 1027 8 12.87472 0 0
9:52 am 09:52 Mostly Cloudy 76 24.4 71 21.7 85 85 S 3 6 30.33 1027 10 16.0934 0 0
10:52 am 10:52 Mostly Cloudy 77 25 72 22.2 85 85 S 6 9 30.34 1027 10 16.0934 0 0
11:52 am 11:52 Cloudy 80 26.7 72 22.2 76 76 SSW 5 7 30.35 1028 10 16.0934 0 0
12:52 pm 12:52 Cloudy 81 27.2 72 22.2 74 74 SSW 5 7 30.34 1027 10 16.0934 0 0
1:01 pm 13:01 Cloudy 80 26.7 72 22.2 76 76 SSW 6 9 30.33 1027 10 16.0934 0 0
1:12 pm 13:12 Cloudy 82 27.8 73 22.8 74 74 SSE 6 9 30.33 1027 10 16.0934 0 0
1:52 pm 13:52 Mostly Cloudy 83 28.3 72 22.2 70 70 SSW 5 7 30.32 1027 10 16.0934 0 0
2:52 pm 14:52 Mostly Cloudy 83 28.3 71 21.7 67 67 ESE 5 7 30.3 1026 10 16.0934 0 0
3:52 pm 15:52 Mostly Cloudy 83 28.3 70 21.1 65 65 S 9 15 30.3 1026 10 16.0934 0 0
4:52 pm 16:52 Mostly Sunny 83 28.3 69 20.6 63 63 S 12 19 30.29 1026 10 16.0934 0 0
5:52 pm 17:52 Mostly Sunny 80 26.7 70 21.1 71 71 SSE 6 9 30.29 1026 10 16.0934 0 0
6:52 pm 18:52 Mostly Clear 79 26.1 68 20 69 69 ESE 9 15 30.31 1026 10 16.0934 0 0
7:52 pm 19:52 Mostly Clear 78 25.6 68 20 71 71 SE 6 9 30.32 1027 10 16.0934 0 0
8:52 pm 20:52 Clear 76 24.4 69 20.6 79 79 S 7 11 30.33 1027 10 16.0934 0 0
9:52 pm 21:52 Clear 75 23.9 69 20.6 82 82 S 5 7 30.33 1027 10 16.0934 0 0
10:52 pm 22:52 Mostly Clear 73 22.8 69 20.6 87 87 S 3 6 30.34 1028 10 16.0934 0 0
11:52 pm 23:52 Mostly Clear 74 23.3 69 20.6 85 85 S 3 6 30.35 1028 10 16.0934 0 0

Powered by AerisWeather